Other Public Products
Issued by NWS Charleston, SC

Home | Current Version | Previous Version | Text Only | Print | Product List | Glossary On
Versions: 1 2 3 4 5 6 7 8 9 10 11 12 13 14 15 16 17 18 19 20 21 22 23 24 25 26 27 28 29 30 31 32 33 34 35 36 37 38 39 40 41 42 43 44 45 46 47 48 49 50
000
FPUS82 KCHS 201627
OPUCHS

TEST...KCHS/KSAV Gateway Observations...TEST
National Weather Service Charleston SC
1100 AM EST MON FEB 20 2017

NOTE: "fair" indicates few or no clouds below 12,000 feet with no
significant weather and/or obstructions to visibility.

SCZ050-WAZ558-NCZ071-TXZ119-213-PAZ071-DCZ001-FLZ074-172-MI076-
NYZ176-178-MAZ016-IL014-TNZ027-NJZ106-GAZ044-MD014-201700-
...Gateway Observations for Charleston International...

CITY           SKY/WX    TMP DP  RH WIND       PRES   REMARKS
Chas Airport   MOSUNNY   69  47  45 VRB5      30.19F
Seattle        LGT RAIN  42  40  92 N13       29.47F
Charlotte      MOSUNNY   66  37  34 E7        30.24S
Dallas DFW     CLOUDY    60  58  92 S12       29.96R
Dallas Love    CLOUDY    60  57  89 SE13      29.96R
Philladelphia  MOSUNNY   53  31  42 N14       30.25R
Wash National  MOSUNNY   63  38  39 N17       30.25S
Baltimore      MOSUNNY   60  33  36 NE8       30.23S
Miami          MOSUNNY   77  62  59 E9G21     30.14S
Detroit        PTSUNNY   49  32  52 E8        30.30F
Newark         MOSUNNY   52  27  38 VRB6      30.20S
Laguardia      MOSUNNY   51  28  41 N12       30.19S
J F K          MOSUNNY   52  31  44 N12       30.20S
Boston Logan   MOSUNNY   41  23  48 N9        30.15S
Ft. Lauderdale MOSUNNY   80  62  54 E15       30.13S
Chicago O`Hare CLOUDY    57  47  69 S13       30.11F
Chicago Midway CLOUDY    58  46  64 S9        30.12F
Houston Bush   RAIN      62  60  93 N7        30.04R FOG
Houston Hobby  LGT RAIN  62  60  93 N12       30.03R
Nashville      CLOUDY    63  48  58 CALM      30.17F
Atlanta        PTSUNNY   64  46  52 E7        30.21F

$$

GAZ044-118-TXZ119-213-NCZ071-DCZ001-MDZ014-506-PAZ021-071-NJZ106-
NYZ176-178-MAZ106-OHZ011-021-055-MIZ076-KYZ091-ILZ014-INZ047-
MNZ060-201700-
...Gateway Observations for Savannah International...

CITY           SKY/WX    TMP DP  RH WIND       PRES   REMARKS
Savannah Arpt  PTSUNNY   72  48  42 NE5       30.20S
Atlanta        PTSUNNY   64  46  52 E7        30.21F
Charlotte      MOSUNNY   66  37  34 E7        30.24S
Dallas DFW     CLOUDY    60  58  92 S12       29.96R
Houston Bush   RAIN      62  60  93 N7        30.04R FOG
Wash National  MOSUNNY   63  38  39 N17       30.25S
Wash Dulles    PTSUNNY   58  39  49 NW13      30.25F
Baltimore      MOSUNNY   60  33  36 NE8       30.23S
Philadelphia   MOSUNNY   53  31  42 N14       30.25R
Newark         MOSUNNY   52  27  38 VRB6      30.20S
Laguardia      MOSUNNY   51  28  41 N12       30.19S
J F K          MOSUNNY   52  31  44 N12       30.20S
Boston         MOSUNNY   41  23  48 N9        30.15S
Pittsburg      PTSUNNY   46  43  89 SE3       30.29F
Akron          MOSUNNY   53  35  50 E7        30.29R
Cleveland      PTSUNNY   54  32  43 E5        30.31S
Cincinnati     PTSUNNY   51  48  89 SE7       30.22S
Columbus       FOG       43  43 100 CALM      30.27S VSB<1/4
Detroit        PTSUNNY   49  32  52 E8        30.30F
Chicago O`Hare CLOUDY    57  47  69 S13       30.11F
Minneapolis    CLOUDY    50  44  80 SE9       29.79F
Indianapolis   PTSUNNY   49  47  93 SE8       30.20S FOG

$$




USA.gov is the U.S. government's official web portal to all federal, state and local government web resources and services.